Notices

What's New in latest Release from April 7th, 2021:

- Updated Glossary, including Speed of Maximum Gust, and Total Hourly Precipitation

- Updated national and regional climate services offices contacts and prices information

- Addition of station inventory lists for 1981-2010, 1971-2000, and 1961-1990 Normals.

If you haven't already, please take our survey and provide feedback about our website: https://eccc.sondage-survey.ca/f/LanguageSelection.aspx?s=442ca660-fcf1-47c0-95a9-59707d6fd709

Hourly Data Report for May 26, 2020

TRENTON A
ONTARIO
Current Station Operator: DND

44°07'00.000" N
77°32'00.000" W
86.30 m
6158875
71621
YTR

Download Data

Hourly Data (May 2020)
Hourly Data Report for May 26, 2020
TIME
LST
Temp Definition
°C
Dew Point Definition
°C
Rel Hum Definition
%
Precip. Amount Definition
mm

Wind Dir Definition
10's deg

Wind Spd Definition
km/h
Visibility Definition
km
Stn Press Definition
kPa
Hmdx Definition


Wind Chill Definition


Weather Definition


00:00 17.0 14.1 83   6 4 24.1 100.81     Clear
01:00 16.7 13.9 84     0 9.7 100.80     Fog
02:00 16.3 13.7 85     0 6.4 100.79     Fog
03:00 16.2 13.5 84   8 4 6.4 100.81     Fog
04:00 16.3 13.6 84   3 5 6.4 100.84     Fog
05:00 15.6 12.9 84   3 4 6.4 100.87     Fog
06:00 17.7 14.7 83     0 11.3 100.95     Mainly Clear
07:00 19.8 15.3 75     0 24.1 100.94     Mainly Clear
08:00 21.9 16.4 71   19 4 24.1 100.95 27   Mainly Clear
09:00 23.9 16.6 64   21 11 24.1 100.94 29   Mainly Clear
10:00 24.3 16.8 63   20 13 24.1 100.94 29   Mainly Clear
11:00 25.9 16.8 57   21 15 24.1 100.94 31   Mainly Clear
12:00 26.6 16.9 55   22 13 24.1 100.93 32   Mainly Clear
13:00 28.1 16.1 48   22 15 24.1 100.88 33   Mostly Cloudy
14:00 29.3 16.6 46   23 13 24.1 100.84 34   Mainly Clear
15:00 29.2 16.1 45   22 15 24.1 100.82 34   Mainly Clear
16:00 29.3 17.4 49   21 13 24.1 100.76 35   Mainly Clear
17:00 29.9 16.9 46   21 11 24.1 100.71 35   Clear
18:00 29.6 16.4 45   21 5 24.1 100.69 34   Clear
19:00 27.9 17.3 53   19 9 24.1 100.71 33   Clear
20:00 25.4 17.0 60   27 5 24.1 100.75 31   Clear
21:00 22.6 17.0 71   35 4 24.1 100.80 28   Clear
22:00 22.1 17.2 74     0 24.1 100.82 28   Clear
23:00 21.3 16.6 75     0 24.1 100.83 26   Clear

Notes on Data Quality.

Legend

  • E = Estimated
  • M = Missing
  • NA = Not Available*
  • [empty] = Indicates an unobserved value
Date modified: